CZ-4 DEB, 28068

Orbit data source: Space-Track

CZ-4 DEB, 28068 is space debris in SSO originally from a launch on Thu, 14 Oct 1999 UTC launched from the Taiyaun Space Center, China (TSC). Debris objects in space refer to the collection of defunct objects orbiting the Earth. Examples of debris include non-operational satellites, rocket bodies, and fragments generated from explosions, collisions, or faulty payload assembly.

Loading next visibility...
Identifier
28068, 1999-057MY
Orbit
SSO
Country
Flag of CNCN / PRC
Related business
Manufacturer
Unknown
Mission
Spacecraft
Bus & Motor
Unknown
Mass
Unknown
Launch date (UTC)
1999-10-14 (26 years ago)
Launch vehicle
Unknown
Launch site
Taiyaun Space Center, China (TSC)
Object type
Payload
Rocket body
Debris
Shape & HBR
Unknown shape, 0.1 m
Radar Cross Section
Small (<0.1 m²)

Expand to show TLE details & history
Last TLE update: 8 hours ago

TLE from 8 hours ago
0 CZ-4 DEB
1 28068U 99057MY  25350.97654693  .00001451  00000-0  35044-3 0  9998
2 28068  98.5219  48.7534 0080663  78.8999 282.1253 14.52757214657744
Epoch: 2025-12-16T23:26Z
TLE epoch observation values (Epoch: 2025-12-16T23:26:13.654Z)
Latitude
-0.00007°
Longitude
-28.65651°
Altitude
708.042 km
Speed
7.508 km/s
True Right ascension
03h 15m 00s
True Declination
0° 00' 00"
Sunlit
Object was in full shadow at epoch
Visualization orbit readout
Latitude
Unknown
Longitude
Unknown
Altitude
Unknown
Speed
Unknown
Apparent Right ascension
Unknown
Apparent Declination
Unknown
Sunlit
N/A
Visualization observer readout
Local Sidereal Time
06:38:13
Azimuth
Unknown
Elevation
Unknown
Doppler factor
Unknown
Orbital elements
Apogee altitude
770.968 km
Perigee altitude
656.558 km
Semi-major axis
7,091.9 km
Eccentricity
0.00807
Inclination
98.5219°
RAAN
48.7534°
Arg. of periapsis
78.8999°
True anomaly
281.21971°
Mean anomaly
282.1253°
Eccentric anomaly
281.67269°
Mean motion
3.63412 °/min
Orbital period
99.06 mins
BSTAR
0.00035044
Loading maneuver chart data...
Computing Atmospheric mass density...
Loading historical data...
Loading historical data...
Loading historical data...
Loading historical data...
Loading historical data...
Loading historical data...
Loading historical data...

Documentation

Showing up to 5 results
|